[Date Prev][Date Next][Thread Prev][Thread Next] - [Date Index][Thread Index][Author Index]
STARSHINE 2 KEPS
- Subject: [sarex] STARSHINE 2 KEPS
- From: Arthur z Rowe <azrowe@xxxxxxxx>
- Date: Sat, 22 Dec 2001 09:52:32 -0500
SUBMITTED BY ARTHUR N1ORC
Starshine 2
1 26996U 01054B 01355.05571877 .00078946 00000-0 78864-3 0 111
2 26996 51.6407 228.2473 0021179 27.4358 332.7437 15.64630209 706
----
Via the sarex mailing list at AMSAT.ORG courtesy of AMSAT-NA.
To unsubscribe, send "unsubscribe sarex" to Majordomo@amsat.org
AMSAT Home